Location: Dzierzno
(50.6159°N, 19.2852°E)
Time: 20:28:08
(UTC+00:00)

Cosmos 2369 Rocket - Pass Details

Date: 18 November 2025
Orbit: 826 x 853 km, 71.0° (Epoch: 10 December)

Event Time Altitude Azimuth Distance (km) Brightness Sun altitude
Rises 17:46:29 0° 189° (S) 3,358 5.4 -27.2°
Reaches altitude 10° 17:48:58 10° 184° (S) 2,432 4.6 -27.6°
Enters shadow 17:50:15 17° 179° (S) 1,979 4.1 -27.8°
